Regional Weather Roundup
Issued by NWS

Home | Current Version | Previous Version | Text Only | Print | Product List | Glossary On
Versions: 1 2 3 4 5 6 7 8 9 10 11 12 13 14 15 16 17 18 19 20 21 22 23 24 25 26 27 28 29 30 31 32 33 34 35 36 37 38 39 40 41 42 43 44 45 46 47 48 49 50
000
ASUS45 KSLC 211910
RWRUT

UTAH REGIONAL WEATHER ROUNDUP
NATIONAL WEATHER SERVICE SALT LAKE CITY UT
100 PM MDT TUE OCT 21 2014

UTZ001>011-023>025-212000-

NORTHERN UTAH

CITY           SKY/WX    TMP DP  RH WIND       PRES   REMARKS
BRIGHAM CITY   CLOUDY    57  38  48 NW12      30.03R
HILL AFB       PTSUNNY   58  38  47 N12G24    30.02R
LOGAN          CLOUDY    54  40  59 N12       30.03R
OGDEN          CLOUDY    60  39  45 N15       30.01R
PROVO AIRPORT  PTSUNNY   66  41  39 NW18G25   29.94F
SALT LAKE CITY CLOUDY    61  36  39 NW23      30.01R
VERNAL         PTSUNNY   62  42  47 SE7       29.99F
WENDOVER       MOSUNNY   63  21  20 W16       30.01R
HEBER CITY     PTSUNNY   63  34  34 SW16G24   29.95F
WEST JORDAN    CLOUDY    57  45  62 NW25G31   30.02R

$$

UTZ012>022-026-027-212000-

SOUTHERN/CENTRAL UTAH

CITY           SKY/WX    TMP DP  RH WIND       PRES   REMARKS
BLANDING       MOSUNNY   64  43  45 SE6       30.18F
BRYCE CANYON   PTSUNNY   60  39  45 SE12      30.14F
CEDAR CITY     SUNNY     68  39  34 SW18G28   30.01F
DELTA          MOSUNNY   71  38  29 SW18G26   29.96F
HANKSVILLE       N/A     68  39  34 SE5       30.00F
MILFORD        MOSUNNY   72  42  34 SW18G32   29.98F
MOAB/CYNLANDS  PTSUNNY   71  41  33 MISG      29.97F
PRICE          MOSUNNY   64  38  38 E7        30.04F
ST GEORGE      MOCLDY    79  45  29 SW5       29.93F
KANAB            N/A     70  41  35 S9        30.07F

$$

REGIONAL REPORTS     COLORADO/ARIZONA

CITY           SKY/WX    TMP DP  RH WIND       PRES   REMARKS
CRAIG, CO      CLOUDY    64  40  41 S18G29    30.04F
GRAND JUNCTION CLOUDY    70  44  39 SE13      30.00F
RIFLE          CLOUDY    59  42  53 NE6       30.07F
MONTROSE       PTSUNNY   64  41  42 N9        30.10F
CORTEZ         CLOUDY    62  44  51 S5        30.13F
PAGE, AZ       NOT AVBL
GRAND CANYON   SUNNY     64  35  34 SW13G21   30.15F
KINGMAN        SUNNY     79  43  27 S13       29.97F
FLAGSTAFF      SUNNY     62  36  37 SW8       30.16F

$$

REGIONAL REPORTS    NEVADA/IDAHO/WYOMING

CITY           SKY/WX    TMP DP  RH WIND       PRES   REMARKS
LAS VEGAS, NV  MOSUNNY   83  33  16 S15       29.84F
ELY            SUNNY     60  17  18 VRB6      30.06F
ELKO           SUNNY     53  23  31 W14G20    30.10F
POCATELLO, ID  MOSUNNY   52  37  56 SW18G26   30.05F
BURLEY         LGT RAIN  53  36  52 W18G31    30.03S
EVANSTON, WY   MOSUNNY   57  36  45 W26G36    30.01S
ROCK SPRINGS   PTSUNNY   60  35  39 SW17      29.99F
KEMMERER       CLOUDY    54  37  54 W21       30.01F

$$



USA.gov is the U.S. government's official web portal to all federal, state and local government web resources and services.